Погода в Ивановке

Украина / Донецкая область     48°15′32″N   37°26′48″E
В апреле 2022 года жителям России запретили посещать сайт meteo.paraplan.net по решению Генеральной прокуратуры. Аудитория сайта уменьшилась в 10 раз. Владельцы сайта не видят смысла в поддержке погодного сервера в таких условиях. Сайт будет закрыт в октябре.
темп.,
°C
ветер,
м/с
пор.,
м/с
влажн.,
%
обл.,
%
осадки,
мм/ч
давл.,
гПа
погр.,
м
3 октября, пн
пн300:00+13з71291100 9.5 1000660
03:00+12з8127899 10.8 10021155
06:00+11зюз9147212 0.1 10051121
09:00+12зюз8117383 0.1 10071155
12:00+14юз9125992 0.1 10091475
15:00+16зюз9114898 0.1 10102030
18:00+13ююз585411 0.0 1011236
21:00+11ююз4863100 0.0 1012162
4 октября, вт
вт400:00+11ю496542 0.0 1012164
03:00+11ю4117391 0.1 1013263
06:00+12ююв7148419 0.1 1013518
09:00+14ю710735 0.3 1014732
12:00+18юз684918 0.2 10131862
15:00+19юз684282 0.3 10142130
18:00+16з364964 0.0 1015193
21:00+13з376026 0.0 1017208
5 октября, ср
ср500:00+11з34693 0.0 101872
03:00+9з34720 0.0 101987
06:00+8зюз35751 0.0 1021106
09:00+11зюз57620 0.0 1021586
12:00+15з674916 0.0 10221490
15:00+16з6845100 0.0 10212047
18:00+14зсз485795 0.1 1023529
21:00+12зсз4765100 0.2 1024568
6 октября, чт
чт600:00+9зсз4877100 0.0 1025316
03:00+8зсз36835 0.0 1026194
06:00+7сз2489100 0.0 1026103
09:00+10сз347097 0.0 1026418
12:00+14зсз335119 0.0 1026953
15:00+16зсз44445 0.0 10251214
18:00+14з23541 0.0 102523
21:00+12юз33605 0.0 102644
7 октября, пт
пт700:00+11юз37655 0.0 1026121
03:00+10зюз367025 0.0 1025102
06:00+10зюз347373 0.0 102563
09:00+14з345632 0.0 1025266
12:00+18зсз34485 0.0 1024967
15:00+19ссз34475 0.0 10231347
18:00+16ссв346518 0.0 102465
21:00+15ссв356680 0.0 1024153